MSU ALTAIR

导读

MSU ALTAIR卫星定于北京时间2024年11月4日8时发射,目前发射国家尚未公布。名称中“MSU”一般指向莫斯科国立大学,推测这是一颗由俄罗斯高校主导研发的卫星任务。从命名里的“ALTAIR”(牛郎星)来看,大概率延续ALTAIR系列航天器技术试验的传统,将开展总线系统技术验证或相关空间科学探测,目前该卫星已完成发射并进入轨道运行,后续将逐步推进既定的太空任务。

Basic Information
目录编号:
61779
目录名称:
MSU ALTAIR
国际标识:
2024-199AW
轨道中心:
EARTH
卫星名称:
MSU ALTAIR
卫星全名:
MSU ALTAIR
卫星状态:
在轨 (已飞行676 天)
发射日期:
2024-11-04 UTC
国别 :
俄罗斯(独联体) (CIS)
星等 :
--
This satellite is enrolled in the Space Conjunction Data Service (SCDS) and the current flight risk assessment level is: High Risk
Orbit Information
数据来源 国际轨道数据
星历时间: 2026-09-11T22:13:46+0800
7小时前
查看轨道信息
半长轴: 6828.744km
偏心率: 0.0012226
轨道倾角: 97.288°
近地点辐角 4.055°
升交点赤经 123.402°
平近点角 356.079°
近地点: 442.258km
远地点: 458.956km
周期: 93.599分钟
每日圈数: 15.384788
Detailed Information
使用方式:
暂无
2D Orbit Map
3D Orbit Map
Orbit Altitude Analysis Chart
Orbit Inclination Analysis Chart
Orbit Comprehensive Analysis Chart
View Comprehensive Chart
Conjunction Data List
Event ID Objects TCA Miss Dist (km) Collision Risk Probability Collision Risk Index (CRI) Action
CDM_260912-063206-177906-824621
2026-09-12T
06:32:27+0000
1.495 km
极远距离
3.717604E-6 低风险 0.46
CDM_260912-050904-941906-177922
2026-09-12T
05:09:52+0000
1.577 km
极远距离
3.252166E-6 低风险 0.45
CDM_260906-053806-172206-177922
2026-09-06T
05:38:28+0000
2.485 km
极远距离
1.710893E-6 低风险 0.4
CDM_260905-213906-177906-614824
2026-09-05T
21:39:54+0000
2.660 km
极远距离
1.578162E-6 低风险 0.39
CDM_260905-183004-941506-177925
2026-09-05T
18:30:01+0000
2.677 km
极远距离
9.106584E-7 极低风险 0.34
CDM_260912-002706-177906-917322
2026-09-12T
00:27:46+0000
2.992 km
极远距离
8.205646E-7 极低风险 0.33
Miss Distance Evolution Trend with All Objects
Collision Probability Evolution Trend with All Objects